Погода Туапсе

Погода Туапсе : погода сейчас, прогноз погоды и архив. Всё, что Вы хотите узнать о погоде Туапсе!

Хотите узнать прогноз погоды Туапсе? Тогда Вам сюда: Погода Туапсе

Поиск расширенной информации на нашем сайте:

Другие новости

Новости СМИ2

Главная страница сайта

Новости сайта

03.07.2017

Напоминаем, что на нашем специализированном сайте Метеоцентр.Азия вы можете получить высокодетализированные автоматические прогнозы погоды по пунктам России, СНГ и мира в авиационном формате (включающие направление и скорость ветра, видимость, явления погоды, количество и форму облачности, нижнюю и верхнюю границу облачности).


Погода Туапсе - сегодня

Время (UTC), дата Ветер
(°,м/с) 
Видим.   Явления Облачность Т
(°С)
Тd
(°С)
f(%) Тe
(°С)
Pmin
(гПа)
dP
(гПа)
Po
(мм)
O2
(г/м3)
Тmin Tmax R s Состояние
почвы
18 14.08.18 050 (СВ) 10 км    ясно 
+28.9 +7.4 26 +29  1010.7  -0.2  753  273           
21 14.08.18 100 (В) 10 км    ясно 
+24.3 +18.9 72 +40  1012  1.3  754  274           
00 15.08.18 030 (СВ) 10 км    ясно 
+23.1 +18.3 74 +38  1012.3  0.2  754  276           
03 15.08.18 030 (СВ) 20000 м    1/1 1000 м 
[Cu med, cong]
+20.8 +17 79 +33  1012.3  754  279  +20.8        сухая 
06 15.08.18 110 (В) 20000 м    3/3 1000 м 
[Cu Sc]
+27 +16.3 52 +38  1011.7  -0.5  754  273  +20.7         
09 15.08.18 230 (ЮЗ) 20000 м    3/3 1000 м 
[Cu Sc]
+30.3 +19.7 53 +48  1011.6  754  269           
12 15.08.18 230 (ЮЗ) 20000 м    ясно 
+31.8 +14.7 36 +40  1010.6  -1  753  269           
15 15.08.18 290 (З) 20000 м    1/1 1000 м 
[Cu med, cong]
+27.6 +19.1 60 +44  1009.7  -1  752  271    +32.4       
18 15.08.18 100 (В) 10 км    ясно 
+25.2 +18.7 67 +41  1009.5  -0.2  752  273           
21 15.08.18 090 (В) 10 км    ясно 
+24.3 +18.9 72 +40  1010.2  0.7  752  274           
00 16.08.18 040 (СВ) 10 км    ясно 
+21.4 +16.3 73 +32  1010.3  752  278           
03 16.08.18 040 (СВ) 20000 м    ясно 
+20.1 +14.2 69 +27  1010.1  -0.2  752  279  +20.1        сухая 
06 16.08.18 070 (В) 20000 м    ясно 
+28.2 +12.2 37 +32  1010  752  272           
09 16.08.18 230 (ЮЗ) 20000 м    ясно 
+31.1 +15.3 38 +40  1009.9  752  269           
12 16.08.18 250 (З) 20000 м    3/0 верхняя 
[Ci sp]
+32.1 +16.2 38 +43  1009.4  -0.5  752  268           
15 16.08.18 250 (З) 20000 м    3/0 верхняя 
[Ci sp]
+29.1 +17.2 49 +42  1008.9  -0.5  752  270    +33.6       
18 16.08.18 030 (СВ) 10 км    3/3 1000 м верхняя 
[Cu med, cong|Ci sp]
+24.9 +18.5 68 +40  1009.6  0.6  752  273           
21 16.08.18 020 (С) 10 км    4/0 верхняя 
[Ci sp]
+22.8 +17.7 73 +36  1009.7  752  276           
00 17.08.18 060 (СВ) 10 км    4/0 верхняя 
[Ci sp]
+23.5 +18.3 73 +38  1009.7  0.1  752  275           
03 17.08.18 050 (СВ) 20000 м    4/3 1000 м верхняя 
[Sc|Ci sp]
+22.9 +18.4 76 +38  1010.3  0.5  752  275  +22.4        сухая 
06 17.08.18 150 (ЮВ) 20000 м    3/0 средняя 
[Ac cast]
+29.4 +18.5 52 +45  1009.9  -0.2  752  269           
09 17.08.18 230 (ЮЗ) 20000 м    3/3 1000 м 
[Cu Sc]
+30.9 +20.6 54 +51  1009.6  -0.3  752  267           
12 17.08.18 250 (З) 20000 м    3/3 1000 м 
[Cu Sc]
+31.8 +18.5 45 +47  1008.7  -0.9  751  267           
15 17.08.18 240 (ЮЗ) 20000 м    1/1 1000 м 
[Cu med, cong]
+28.9 +17.8 51 +43  1008  -0.7  751  270    +33.1       
18 17.08.18 040 (СВ) 10 км    ясно 
+24.7 +18.2 67 +39  1008.5  0.4  751  273           
Время (UTC), дата Ветер
(°,м/с) 
Видим.   Явления Облачность Т
(°С)
Тd
(°С)
f(%) Тe
(°С)
Pmin
(гПа)
dP
(гПа)
Po
(мм)
O2
(г/м3)
Тmin Tmax R s Состояние
почвы

Для получения пояснительной информации подведите курсор к названию столбца.

ПОГОДА Туапсе - архив

Всё, что Вы хотите узнать о погоде Туапсе - удобно и подробно!

Выберите нужную дату (начиная с 1 января 2015* года) и нажмите кнопку "Найти".
Будут отображены архивные сводки погоды по пункту Туапсе, начиная с указанной даты.


Отображать данные в формате CSV (для использования в таблицах Excel)


Внимание! Наш архив погоды предназначен исключительно для личного некоммерческого использования в познавательных целях. Если Вам необходимы официальные справки о состоянии погоды (для производственных, юридических, коммерческих и т.п. целей), обращайтесь в органы Росгидромета.

*Примечание: данная дата относится к архиву по метеостанциям СССР (Россия, СНГ, Балтия).
Архив по метеостанциям Зарубежной Европы и Азии (кроме Китая) хранится 10 дней, по другим регионам земного шара (Китай, Африка, Америка, Австралия, Океания) - 1 день.

Туапсе - район местоположения метеостанции


Название, широта, долгота, высота метеостанции:
Туапсе 44.1°ш. 39.1°д. 61 м над ур. моря [Российская Федерация]

Дополнительная информация

В oтличие oт бoльшинства пoгoдных сайтoв мы публикуем пoдрoбную метеoинфoрмацию в детальнoм прoфессиoнальнoм фoрмате.

Характеристики температуры и влажнoсти вoздуха измеряются на высoте 2 м в тени вдали oт зданий и деревьев.
Скoрoсть ветра измеряется на высoте 10 м (на урoвне рoста челoвека скoрoсть ветра ниже в 1.5-2 раза). Если метеoстанция нахoдится в гoрoде или в лесу, тo скoрoсть ветра занижена на 2-4 м/с пo сравнению с oткрытым местoм. Скoрoсть ветра над акватoриями крупных рек и oзёр, а также на вершинах хoлмoв на 2-5 м/с выше, чем в oбычных услoвиях.
Атмoсфернoе давление в разных тoчках местнoсти мoжет значительнo oтличаться oт давления на метеoстанции, в зависимoсти oт услoвий рельефа (при пoдъёме на 10 м давление пoнижается примернo на 1 мм рт.ст.).